Location: Gombori
(14.9797°N, 2.9419°W)
Time: 05:45:17
(UTC+00:00)

COSMOS 1275 DEB - Pass Details

Date: 06 June 2022
Orbit: 837 x 941 km, 83.0° (Epoch: 29 June)

Event Time Altitude Azimuth Distance (km) Brightness Sun altitude
Exits shadow 22:22:55 17° 355° (N) 2,187 ? -44.0°
Drops below altitude 10° 22:24:09 10° 357° (N) 2,635 ? -44.2°
Sets 22:26:38 0° 360° (N) 3,569 ? -44.5°
